SCP
-0 -0 -0 0 0 0 0 0 0 0 0 0 0 0 0 0 0 0 0 0 -0 -0 0 0 -0 -0 -0 0 0 0 0 0 0 0 0 0 0 0 0 0 0 0 0
-0 -0 -0 -0 -0 -0 -0 -0 0 0 0 0 0 0 0 0 0 0 0 0 0 -0 -0 0 0 -0 -0 0 0 0 0 0 0 0 0 0 0 0 0 0 0 0 0
0 -0 -0 -0 -0 -0 0 0 0 0 0 0 0 0 0 0 0 0 0 0 0 -0 -0 -0 0 0 0 0 0 0 0 0 0 -0 -0 -0 0 0 0 0 0 0 0
0 -0 -0 -0 -0 -0 -0 0 0 0 0 0 0 0 0 0 0 0 0 0 0 0 -0 -0 0 0 0 0 0 0 0 0 0 -0 -0 0 0 0 0 0 0 0 0
0 -0 -0 -0 -0 -0 -0 0 0 0 0 0 0 0 0 0 0 0 0 0 0 0 0 0 0 0 0 0 0 0 0 0 0 -0 -0 0 0 0 0 0 0 0 0
0 0 -0 -0 -0 -0 0 0 0 0 0 0 0 0 0 0 0 0 0 0 0 0 0 0 0 0 0 0 0 0 0 0 0 0 0 0 0 0 0 0 0 0 0
0 0 0 0 0 0 0 0 0 0 0 0 0 0 0 0 0 0 0 0 0 0 0 0 0 0 0 0 0 0 0 0 0 0 0 0 0 0 0 0 0 0 0
0 0 0 0 0 0 0 0 0 0 0 0 0 0 0 0 0 0 0 0 0 0 0 0 0 0 0 0 0 0 0 0 0 0 0 0 0 0 0 0 0 0 0
0 0 0 0 0 0 0 0 0 0 0 0 0 0 0 0 0 0 0 0 0 0 0 0 0 0 0 0 0 0 0 0 0 0 0 0 0 0 0 0 0 0 0
0 0 0 0 0 0 0 0 0 0 0 0 0 0 0 0 0 0 0 0 0 0 0 0 0 0 0 1 0 0 0 0 0 0 0 0 0 0 0 0 0 0 0
0 0 0 0 0 0 0 0 0 0 0 0 0 0 0 0 0 0 0 0 0 0 0 0 0 0 0 0 0 0 0 0 0 0 0 0 0 0 0 0 0 0 0
0 0 0 0 0 0 0 0 0 0 0 0 0 0 0 0 0 0 0 0 0 0 0 0 0 0 0 0 0 0 0 0 0 0 0 0 0 0 0 0 0 0 0
0 0 0 0 0 0 0 0 0 0 0 0 0 0 0 0 0 0 0 0 0 0 0 0 0 0 0 0 0 1 1 0 0 1 0 0 0 0 0 0 0 0 0
0 0 0 0 0 0 0 0 0 0 0 0 0 0 0 0 0 0 0 0 0 0 0 0 0 0 0 0 0 0 0 1 1 1 0 0 0 0 0 0 0 0 0
0 0 0 0 0 0 0 0 0 0 0 0 0 0 0 0 0 0 0 0 0 0 0 0 0 0 0 0 0 0 0 0 1 1 1 0 0 0 0 0 0 0 0
0 0 0 0 0 0 0 0 0 0 0 0 0 0 0 0 0 0 0 0 0 0 0 0 0 0 0 0 0 0 0 0 0 1 1 1 0 0 0 0 0 0 0
0 0 0 0 0 0 0 0 0 0 0 0 0 0 0 0 0 0 0 0 0 0 0 0 0 0 0 0 0 0 0 0 0 0 1 1 1 0 0 0 0 0 0
0 0 0 0 0 0 0 0 0 0 0 0 0 0 0 0 0 0 0 0 0 0 0 0 0 0 0 0 0 0 0 0 0 0 0 0 0 1 0 0 0 1 1
0 0 0 0 0 0 0 0 0 0 0 0 0 0 0 0 0 0 0 0 0 0 0 0 0 0 0 0 0 0 0 0 0 0 0 0 1 0 0 0 0 0 0
0 0 0 0 0 0 0 0 0 0 0 0 0 0 0 0 0 0 0 0 0 0 0 0 0 0 0 0 0 0 0 0 0 0 0 0 0 0 0 0 0 0 0
0 0 0 0 0 0 0 0 0 0 0 0 0 0 0 0 0 0 0 0 0 0 0 0 0 0 0 0 0 0 0 0 0 0 0 0 0 0 0 0 0 0 0
0 0 0 0 0 0 0 0 0 0 0 0 0 0 0 0 0 0 0 0 0 0 0 0 0 0 0 0 0 0 0 0 0 0 0 0 0 0 0 0 0 0 0
0 0 0 0 0 0 0 0 0 0 0 0 0 0 0 0 0 0 0 0 0 0 0 0 0 0 0 0 0 0 0 0 0 0 0 0 0 0 0 0 0 0 0
0 0 0 0 0 0 0 0 0 0 0 0 0 0 0 0 0 0 0 0 0 0 0 0 0 0 0 0 0 0 0 0 0 0 0 0 0 0 0 0 0 0 0
0 0 0 0 0 0 0 0 0 0 0 0 0 0 0 0 0 0 0 0 0 0 0 0 0 0 0 0 0 0 0 0 0 0 0 0 0 0 0 0 0 0 0
0 0 0 0 0 0 0 0 0 0 0 0 0 0 0 0 0 0 0 0 0 0 0 0 0 0 0 0 0 0 0 0 0 0 0 0 0 0 0 0 0 0 0
Wind_Speed_500mb
4 14 12 4 5 4 4 3 4 3 4 3 4 5 7 8 8 10 11 11 10 8 9 8 4 4 5 5 4 7 6 5 6 6 3 1 2 4 6 10 13 5 3
9 15 9 2 2 3 2 3 5 6 6 6 6 6 7 8 9 10 10 10 9 7 5 5 4 2 1 3 2 3 5 4 5 4 3 7 5 4 9 10 8 7 11
12 13 12 3 0 0 2 3 5 5 7 8 9 8 8 8 9 10 10 10 10 8 5 7 7 5 5 6 6 7 7 7 5 3 1 9 13 4 7 8 10 15 18
11 5 4 3 3 0 1 3 6 7 7 8 9 10 12 13 11 12 11 11 11 11 11 12 14 14 15 11 9 11 13 10 7 5 3 6 7 16 17 19 19 18 15
5 8 3 3 5 4 5 3 5 8 11 12 14 14 15 13 13 14 15 15 15 14 13 15 18 17 18 18 14 15 16 15 12 9 5 10 10 19 17 17 17 16 14
8 6 5 6 7 8 10 10 10 12 15 16 18 19 20 20 18 19 18 17 17 18 16 17 18 17 19 22 20 18 17 17 17 16 12 16 17 22 17 15 15 15 14
4 3 7 8 10 11 15 14 13 16 20 23 24 24 24 25 25 25 24 24 24 23 21 20 19 18 17 23 26 26 22 20 20 17 21 20 22 22 20 20 17 16 16
3 2 7 12 15 16 17 18 21 21 24 29 30 26 26 28 29 28 29 29 29 28 26 25 23 23 22 26 29 30 30 28 26 25 24 28 27 27 24 22 20 18 17
1 6 9 13 17 21 24 25 26 28 29 32 30 31 31 29 29 30 31 31 32 31 31 31 30 29 29 30 31 34 36 36 34 28 26 31 32 31 28 26 23 21 19
8 11 14 16 18 19 23 25 29 31 32 33 34 34 34 31 37 33 29 33 33 33 36 37 37 36 36 36 37 37 38 42 43 40 34 36 41 39 34 31 27 27 25
11 13 15 16 17 18 20 24 26 28 29 32 35 36 32 25 23 28 35 37 41 42 40 38 40 41 41 42 43 42 42 48 42 40 34 38 47 38 40 38 35 31 34
9 12 12 14 15 16 17 18 19 21 23 25 28 31 29 29 32 38 37 43 44 47 47 45 46 43 43 41 36 40 44 44 40 45 43 42 51 43 42 43 42 38 36
8 12 15 18 20 21 22 22 21 21 22 22 23 25 26 26 27 30 26 23 26 33 38 32 38 37 43 38 40 40 43 41 41 48 52 47 55 50 47 46 46 44 43
9 14 19 21 23 25 26 25 23 20 23 21 23 25 25 25 26 26 24 24 26 24 28 31 31 36 42 44 39 47 50 45 49 50 53 51 55 51 51 51 50 49 48
10 16 20 23 27 31 30 28 24 21 19 20 22 23 23 22 24 23 21 22 23 25 27 29 31 33 36 39 44 48 45 53 55 53 53 58 56 56 54 53 54 52 52
11 16 21 25 30 33 30 27 23 19 19 21 24 23 20 20 19 20 20 19 20 21 24 28 31 34 35 39 42 42 49 54 55 55 53 55 55 58 59 57 58 56 54
13 17 22 27 33 34 30 25 20 19 17 17 23 20 18 17 18 19 19 21 21 21 23 24 26 29 34 34 33 40 44 48 49 53 50 50 61 56 57 58 59 57 52
14 18 23 26 30 31 26 21 15 15 17 17 14 24 19 17 18 20 18 18 20 21 21 20 21 27 28 31 40 41 39 48 46 47 47 47 48 45 53 60 49 50 49
18 21 23 25 28 27 22 17 15 17 16 11 13 12 14 13 13 14 16 15 19 15 19 24 23 21 30 31 32 33 35 33 37 39 37 38 45 38 33 23 15 5 18
24 24 24 26 28 25 18 13 7 18 15 10 6 8 9 8 11 14 18 20 22 22 22 24 25 23 23 29 30 29 24 22 21 21 28 41 47 43 37 39 28 7 14
26 25 24 26 29 23 14 9 8 16 10 5 5 6 7 9 11 12 14 19 20 23 27 28 25 21 25 30 21 27 18 15 15 16 18 16 16 15 22 15 8 11 20
24 25 26 27 28 20 15 13 13 11 7 5 6 8 11 11 9 10 13 17 22 24 23 25 26 27 23 27 28 20 17 12 7 18 20 24 25 28 29 27 28 30 42
24 25 27 30 28 19 14 11 9 7 5 5 8 8 6 8 9 11 16 19 19 20 21 23 23 23 24 21 21 18 11 11 35 14 19 22 29 32 28 28 32 35 42
23 28 30 31 24 17 14 11 6 7 6 8 6 5 6 9 12 15 15 16 18 19 21 22 23 23 22 21 12 13 10 15 9 18 15 28 21 23 25 25 25 25 26
28 29 30 31 22 19 14 11 9 9 9 8 7 8 10 12 13 15 17 18 20 21 23 26 25 24 22 21 20 19 11 5 7 13 26 24 33 19 28 27 22 24 29
28 30 30 27 21 18 15 13 13 12 10 7 9 10 13 15 16 17 17 19 20 22 23 24 24 24 21 19 18 17 15 8 15 14 24 28 33 23 31 6 26 22 23
Wind_Direction_500mb
8 38 348 42 42 35 359 336 310 304 311 326 341 343 349 351 355 360 360 2 10 24 45 47 77 73 71 75 60 44 44 19 24 41 70 103 222 184 137 137 113 177 1
47 31 359 120 57 25 325 279 282 301 295 304 308 313 330 343 350 352 352 350 354 353 351 22 36 31 12 263 299 338 3 349 338 346 25 50 26 205 170 180 168 270 314
55 41 30 60 49 343 276 247 255 272 291 299 297 303 307 319 328 335 342 343 339 322 303 298 287 284 277 289 289 280 307 320 320 310 198 54 307 222 175 209 266 287 300
68 11 349 20 9 63 242 267 264 266 269 271 275 286 296 302 309 309 315 322 326 311 289 276 284 294 261 269 294 287 284 287 291 286 48 257 242 270 264 268 274 279 285
89 256 292 345 351 321 339 303 284 288 287 275 270 267 269 277 291 293 298 305 305 307 293 277 276 284 268 260 277 299 290 279 272 270 253 253 233 272 272 268 270 273 276
77 234 251 304 302 311 319 302 294 292 289 292 283 275 275 278 272 276 277 283 286 288 295 293 286 285 272 260 266 289 294 287 269 268 257 264 262 249 265 262 265 269 270
157 233 261 276 283 272 283 291 287 285 287 288 291 284 280 280 281 282 281 280 284 287 285 287 288 285 270 265 268 274 286 290 277 264 260 256 270 265 265 267 263 265 268
150 260 287 282 279 281 281 280 284 287 286 285 292 294 292 287 284 283 282 282 282 283 281 281 283 281 276 270 269 275 279 280 281 270 253 258 255 263 264 266 260 264 271
314 321 312 301 293 286 277 278 276 276 278 285 288 287 289 290 288 286 286 287 281 280 280 280 280 278 275 272 270 269 271 272 271 266 260 266 264 262 259 262 263 264 268
316 319 316 310 301 292 289 285 280 279 280 283 281 281 284 289 288 288 288 281 283 284 283 281 280 277 275 273 272 271 271 271 267 265 258 252 249 259 257 257 256 259 265
319 320 318 315 314 311 305 301 296 292 287 284 283 282 282 289 286 293 277 282 283 289 289 288 285 283 282 278 277 276 275 271 268 264 254 255 265 263 258 256 255 249 253
316 319 322 323 322 319 315 314 312 310 305 301 298 293 289 281 282 282 289 284 285 282 280 287 287 289 283 286 289 282 275 277 262 261 262 251 262 265 260 258 256 252 249
306 321 329 331 331 329 327 325 321 323 316 314 308 306 302 299 293 289 288 288 290 293 297 285 280 285 286 274 265 263 270 266 263 261 264 253 261 267 260 258 256 255 251
308 324 331 335 336 335 331 325 323 325 319 318 315 314 310 303 299 300 297 294 295 292 288 288 285 288 277 265 275 285 277 274 268 267 263 262 257 262 262 257 256 254 253
316 329 333 335 336 334 328 322 318 315 315 315 308 305 310 315 310 310 310 306 304 301 300 294 290 287 287 285 286 278 272 278 277 279 271 266 262 259 262 260 257 257 257
306 322 330 335 337 335 331 324 317 312 310 311 309 308 305 304 305 304 305 307 309 310 305 300 300 296 295 285 277 281 285 280 279 279 279 273 272 264 261 262 257 255 256
297 320 328 332 336 336 331 328 326 321 319 317 329 329 325 329 330 332 337 341 333 318 318 312 306 298 298 293 292 285 280 280 283 282 279 278 276 273 269 260 255 252 254
290 310 318 324 331 332 328 327 327 324 320 351 340 341 352 357 352 349 12 347 349 342 337 322 319 320 314 304 304 288 281 283 289 292 289 279 277 274 274 256 247 243 247
280 295 308 320 331 331 323 322 325 306 329 350 340 346 348 356 1 360 9 358 7 5 350 355 343 329 327 324 320 315 305 292 286 289 293 283 265 261 263 319 309 335 348
273 291 304 318 327 326 317 324 327 274 319 345 342 358 13 17 18 10 2 357 357 358 349 345 342 335 323 314 320 331 320 325 312 294 279 276 276 276 295 280 287 280 244
273 282 300 314 323 321 308 301 257 294 302 285 309 336 349 351 344 345 355 3 5 2 353 346 341 336 338 330 334 307 302 294 315 322 343 329 316 293 269 296 298 304 311
258 281 299 311 319 309 289 286 287 287 289 324 322 317 323 329 350 1 8 8 359 345 349 357 358 355 349 346 350 5 337 316 6 329 313 321 308 306 308 299 284 281 276
257 275 292 306 311 292 277 279 293 300 348 328 308 315 340 12 17 12 356 352 346 347 348 352 356 357 360 358 5 18 352 340 332 352 356 355 338 329 317 310 298 291 285
248 270 288 301 298 271 258 253 245 223 232 274 295 310 332 335 343 352 354 347 344 344 343 344 346 348 349 349 12 10 358 333 328 313 297 323 326 339 319 318 311 297 289
248 272 287 295 278 262 258 252 242 242 248 262 284 317 327 344 346 339 336 337 337 340 341 340 339 345 347 344 345 342 338 322 308 302 303 302 297 304 309 331 287 302 292
260 272 284 279 264 253 243 239 235 236 245 269 283 298 319 329 329 330 331 333 336 335 332 332 336 338 340 338 338 332 333 343 299 309 303 303 310 309 313 0 315 299 295
Wind_Speed_850mb
4 14 12 4 5 4 4 3 4 3 4 3 4 5 7 8 8 10 11 11 10 8 9 8 4 4 5 5 4 7 6 5 6 6 3 1 2 4 6 10 13 5 3
9 15 9 2 2 3 2 3 5 6 6 6 6 6 7 8 9 10 10 10 9 7 5 5 4 2 1 3 2 3 5 4 5 4 3 7 5 4 9 10 8 7 11
12 13 12 3 0 0 2 3 5 5 7 8 9 8 8 8 9 10 10 10 10 8 5 7 7 5 5 6 6 7 7 7 5 3 1 9 13 4 7 8 10 15 18
11 5 4 3 3 0 1 3 6 7 7 8 9 10 12 13 11 12 11 11 11 11 11 12 14 14 15 11 9 11 13 10 7 5 3 6 7 16 17 19 19 18 15
5 8 3 3 5 4 5 3 5 8 11 12 14 14 15 13 13 14 15 15 15 14 13 15 18 17 18 18 14 15 16 15 12 9 5 10 10 19 17 17 17 16 14
8 6 5 6 7 8 10 10 10 12 15 16 18 19 20 20 18 19 18 17 17 18 16 17 18 17 19 22 20 18 17 17 17 16 12 16 17 22 17 15 15 15 14
4 3 7 8 10 11 15 14 13 16 20 23 24 24 24 25 25 25 24 24 24 23 21 20 19 18 17 23 26 26 22 20 20 17 21 20 22 22 20 20 17 16 16
3 2 7 12 15 16 17 18 21 21 24 29 30 26 26 28 29 28 29 29 29 28 26 25 23 23 22 26 29 30 30 28 26 25 24 28 27 27 24 22 20 18 17
1 6 9 13 17 21 24 25 26 28 29 32 30 31 31 29 29 30 31 31 32 31 31 31 30 29 29 30 31 34 36 36 34 28 26 31 32 31 28 26 23 21 19
8 11 14 16 18 19 23 25 29 31 32 33 34 34 34 31 37 33 29 33 33 33 36 37 37 36 36 36 37 37 38 42 43 40 34 36 41 39 34 31 27 27 25
11 13 15 16 17 18 20 24 26 28 29 32 35 36 32 25 23 28 35 37 41 42 40 38 40 41 41 42 43 42 42 48 42 40 34 38 47 38 40 38 35 31 34
9 12 12 14 15 16 17 18 19 21 23 25 28 31 29 29 32 38 37 43 44 47 47 45 46 43 43 41 36 40 44 44 40 45 43 42 51 43 42 43 42 38 36
8 12 15 18 20 21 22 22 21 21 22 22 23 25 26 26 27 30 26 23 26 33 38 32 38 37 43 38 40 40 43 41 41 48 52 47 55 50 47 46 46 44 43
9 14 19 21 23 25 26 25 23 20 23 21 23 25 25 25 26 26 24 24 26 24 28 31 31 36 42 44 39 47 50 45 49 50 53 51 55 51 51 51 50 49 48
10 16 20 23 27 31 30 28 24 21 19 20 22 23 23 22 24 23 21 22 23 25 27 29 31 33 36 39 44 48 45 53 55 53 53 58 56 56 54 53 54 52 52
11 16 21 25 30 33 30 27 23 19 19 21 24 23 20 20 19 20 20 19 20 21 24 28 31 34 35 39 42 42 49 54 55 55 53 55 55 58 59 57 58 56 54
13 17 22 27 33 34 30 25 20 19 17 17 23 20 18 17 18 19 19 21 21 21 23 24 26 29 34 34 33 40 44 48 49 53 50 50 61 56 57 58 59 57 52
14 18 23 26 30 31 26 21 15 15 17 17 14 24 19 17 18 20 18 18 20 21 21 20 21 27 28 31 40 41 39 48 46 47 47 47 48 45 53 60 49 50 49
18 21 23 25 28 27 22 17 15 17 16 11 13 12 14 13 13 14 16 15 19 15 19 24 23 21 30 31 32 33 35 33 37 39 37 38 45 38 33 23 15 5 18
24 24 24 26 28 25 18 13 7 18 15 10 6 8 9 8 11 14 18 20 22 22 22 24 25 23 23 29 30 29 24 22 21 21 28 41 47 43 37 39 28 7 14
26 25 24 26 29 23 14 9 8 16 10 5 5 6 7 9 11 12 14 19 20 23 27 28 25 21 25 30 21 27 18 15 15 16 18 16 16 15 22 15 8 11 20
24 25 26 27 28 20 15 13 13 11 7 5 6 8 11 11 9 10 13 17 22 24 23 25 26 27 23 27 28 20 17 12 7 18 20 24 25 28 29 27 28 30 42
24 25 27 30 28 19 14 11 9 7 5 5 8 8 6 8 9 11 16 19 19 20 21 23 23 23 24 21 21 18 11 11 35 14 19 22 29 32 28 28 32 35 42
23 28 30 31 24 17 14 11 6 7 6 8 6 5 6 9 12 15 15 16 18 19 21 22 23 23 22 21 12 13 10 15 9 18 15 28 21 23 25 25 25 25 26
28 29 30 31 22 19 14 11 9 9 9 8 7 8 10 12 13 15 17 18 20 21 23 26 25 24 22 21 20 19 11 5 7 13 26 24 33 19 28 27 22 24 29
28 30 30 27 21 18 15 13 13 12 10 7 9 10 13 15 16 17 17 19 20 22 23 24 24 24 21 19 18 17 15 8 15 14 24 28 33 23 31 6 26 22 23
Wind_Direction_850mb
8 38 348 42 42 35 359 336 310 304 311 326 341 343 349 351 355 360 360 2 10 24 45 47 77 73 71 75 60 44 44 19 24 41 70 103 222 184 137 137 113 177 1
47 31 359 120 57 25 325 279 282 301 295 304 308 313 330 343 350 352 352 350 354 353 351 22 36 31 12 263 299 338 3 349 338 346 25 50 26 205 170 180 168 270 314
55 41 30 60 49 343 276 247 255 272 291 299 297 303 307 319 328 335 342 343 339 322 303 298 287 284 277 289 289 280 307 320 320 310 198 54 307 222 175 209 266 287 300
68 11 349 20 9 63 242 267 264 266 269 271 275 286 296 302 309 309 315 322 326 311 289 276 284 294 261 269 294 287 284 287 291 286 48 257 242 270 264 268 274 279 285
89 256 292 345 351 321 339 303 284 288 287 275 270 267 269 277 291 293 298 305 305 307 293 277 276 284 268 260 277 299 290 279 272 270 253 253 233 272 272 268 270 273 276
77 234 251 304 302 311 319 302 294 292 289 292 283 275 275 278 272 276 277 283 286 288 295 293 286 285 272 260 266 289 294 287 269 268 257 264 262 249 265 262 265 269 270
157 233 261 276 283 272 283 291 287 285 287 288 291 284 280 280 281 282 281 280 284 287 285 287 288 285 270 265 268 274 286 290 277 264 260 256 270 265 265 267 263 265 268
150 260 287 282 279 281 281 280 284 287 286 285 292 294 292 287 284 283 282 282 282 283 281 281 283 281 276 270 269 275 279 280 281 270 253 258 255 263 264 266 260 264 271
314 321 312 301 293 286 277 278 276 276 278 285 288 287 289 290 288 286 286 287 281 280 280 280 280 278 275 272 270 269 271 272 271 266 260 266 264 262 259 262 263 264 268
316 319 316 310 301 292 289 285 280 279 280 283 281 281 284 289 288 288 288 281 283 284 283 281 280 277 275 273 272 271 271 271 267 265 258 252 249 259 257 257 256 259 265
319 320 318 315 314 311 305 301 296 292 287 284 283 282 282 289 286 293 277 282 283 289 289 288 285 283 282 278 277 276 275 271 268 264 254 255 265 263 258 256 255 249 253
316 319 322 323 322 319 315 314 312 310 305 301 298 293 289 281 282 282 289 284 285 282 280 287 287 289 283 286 289 282 275 277 262 261 262 251 262 265 260 258 256 252 249
306 321 329 331 331 329 327 325 321 323 316 314 308 306 302 299 293 289 288 288 290 293 297 285 280 285 286 274 265 263 270 266 263 261 264 253 261 267 260 258 256 255 251
308 324 331 335 336 335 331 325 323 325 319 318 315 314 310 303 299 300 297 294 295 292 288 288 285 288 277 265 275 285 277 274 268 267 263 262 257 262 262 257 256 254 253
316 329 333 335 336 334 328 322 318 315 315 315 308 305 310 315 310 310 310 306 304 301 300 294 290 287 287 285 286 278 272 278 277 279 271 266 262 259 262 260 257 257 257
306 322 330 335 337 335 331 324 317 312 310 311 309 308 305 304 305 304 305 307 309 310 305 300 300 296 295 285 277 281 285 280 279 279 279 273 272 264 261 262 257 255 256
297 320 328 332 336 336 331 328 326 321 319 317 329 329 325 329 330 332 337 341 333 318 318 312 306 298 298 293 292 285 280 280 283 282 279 278 276 273 269 260 255 252 254
290 310 318 324 331 332 328 327 327 324 320 351 340 341 352 357 352 349 12 347 349 342 337 322 319 320 314 304 304 288 281 283 289 292 289 279 277 274 274 256 247 243 247
280 295 308 320 331 331 323 322 325 306 329 350 340 346 348 356 1 360 9 358 7 5 350 355 343 329 327 324 320 315 305 292 286 289 293 283 265 261 263 319 309 335 348
273 291 304 318 327 326 317 324 327 274 319 345 342 358 13 17 18 10 2 357 357 358 349 345 342 335 323 314 320 331 320 325 312 294 279 276 276 276 295 280 287 280 244
273 282 300 314 323 321 308 301 257 294 302 285 309 336 349 351 344 345 355 3 5 2 353 346 341 336 338 330 334 307 302 294 315 322 343 329 316 293 269 296 298 304 311
258 281 299 311 319 309 289 286 287 287 289 324 322 317 323 329 350 1 8 8 359 345 349 357 358 355 349 346 350 5 337 316 6 329 313 321 308 306 308 299 284 281 276
257 275 292 306 311 292 277 279 293 300 348 328 308 315 340 12 17 12 356 352 346 347 348 352 356 357 360 358 5 18 352 340 332 352 356 355 338 329 317 310 298 291 285
248 270 288 301 298 271 258 253 245 223 232 274 295 310 332 335 343 352 354 347 344 344 343 344 346 348 349 349 12 10 358 333 328 313 297 323 326 339 319 318 311 297 289
248 272 287 295 278 262 258 252 242 242 248 262 284 317 327 344 346 339 336 337 337 340 341 340 339 345 347 344 345 342 338 322 308 302 303 302 297 304 309 331 287 302 292
260 272 284 279 264 253 243 239 235 236 245 269 283 298 319 329 329 330 331 333 336 335 332 332 336 338 340 338 338 332 333 343 299 309 303 303 310 309 313 0 315 299 295